User: anonymous   Login
Location: Unspecified
(0.0000°N, 0.0000°E)
Time: 17:12:37
(UTC+00:00)
Language:

Vela 6A - Orbit

View from above orbital plane
View from above orbital plane
View from above satellite
View from above satellite

Ground track
Ground track

The orbit data is extracted from the following two-line orbital elements,

1 04366U 70027A   21021.69970086  .00000709  00000-0  00000-0 0  9992
2 04366  67.3780  65.0114 8367884 131.9975 359.9631  0.21447154  8909
Epoch (UTC): 21 January 2021 16:47:34
Eccentricity: 0.8367884
inclination: 67.3780°
perigee height: 12863 km
apogee height: 210164 km
right ascension of ascending node: 65.0114°
argument of perigee: 131.9975°
revolutions per day: 0.21447154
mean anomaly at epoch: 359.9631°
orbit number at epoch: 890

The dashed part of the orbit path shows where the satellite is in the earth's shadow,  

DLR